"Pseudo-MPEC" for W000IHI

Created 2020 May 26 5:07:23 UT using Find_Orb

Click here for an explanation of pseudo-MPECs

 
 Astrometry: 
     W000IHI ^C2020 05 20.35565315 27 32.617-17 13 50.75   ~5L5M 19.85GVNEOCP568
     W000IHI ^C2020 05 20.35661115 27 34.397-17 15 09.21   ~5L5M 20.07GVNEOCP568
     W000IHI ^C2020 05 20.35779015 27 36.610-17 16 47.16   ~5L5M       VNEOCP568
     W000IHI ^C2020 05 20.35851315 27 37.962-17 17 46.38   ~5L5M 20.21GVNEOCP568

Station data:
(568) Mauna Kea  (N19.826116 W155.472200)  US/Hawaii.

Orbital elements:  W000IHI
   Perigee 2020 May 22.234193 +/- 37.9 TT =  5:37:14 (JD 2458991.734193)
Epoch 2020 May 20.0 TT = JDT 2458989.5                        AutoNEOCP
M 338.23995834 +/- 23               (J2000 equator)
n   9.73955265 +/- 0.407            Peri.  274.85229 +/- 55
a468717.137 +/- 5.03e+7             Node    40.12982 +/- 43
e   0.6101124 +/- 0.248             Incl.   56.43781 +/- 5.8
P  36.96d                  H 33.8   G  0.15   U 12.1  SR
q 182746.966 +/- 2.39e+7    Q 754687.308 +/- 6.29e+9
From 4 observations 2020 May 20 (4.1 min); mean residual 0".20
Residuals in arcseconds: 
200520 568  .08+  .18-    200520 568  .00   .31-    
200520 568  .12-  .39+    200520 568  .04+  .10+    

Ephemerides (geocentric):
Date (UTC) HH   RA              Dec         delta   r     elong  mag " sig PA
---- -- -- --  -------------   -----------  ------ ------ -----  --- ---- ---
2020 05 26 05  03 43 39.231   +22 11 49.05  377462 1.0106   6.9 42??  95d 172
2020 05 26 06  03 44 56.547   +22 35 34.68  379813 1.0106   6.7 42??  97d 172
2020 05 26 07  03 46 13.365   +22 59 00.55  382156 1.0106   6.5 43??  97d 172
2020 05 26 08  03 47 29.699   +23 22 07.05  384491 1.0106   6.4 43??  99d 172
2020 05 26 09  03 48 45.564   +23 44 54.58  386818 1.0106   6.3 43?? 100d 172
2020 05 26 10  03 50 00.971   +24 07 23.52  389136 1.0106   6.2 43?? 102d 172
2020 05 26 11  03 51 15.934   +24 29 34.23  391447 1.0106   6.2 43?? 103d 173
2020 05 26 12  03 52 30.464   +24 51 27.08  393749 1.0106   6.1 43?? 105d 173
2020 05 26 13  03 53 44.573   +25 13 02.41  396043 1.0106   6.2 43?? 107d 173
2020 05 26 14  03 54 58.273   +25 34 20.56  398328 1.0106   6.2 43?? 108d 173
2020 05 26 15  03 56 11.574   +25 55 21.88  400606 1.0105   6.3 43?? 109d 173
2020 05 26 16  03 57 24.487   +26 16 06.67  402874 1.0105   6.4 43?? 108d 173
2020 05 26 17  03 58 37.022   +26 36 35.27  405135 1.0105   6.5 43?? 109d 173
2020 05 26 18  03 59 49.189   +26 56 47.97  407387 1.0105   6.7 42?? 109d 173
2020 05 26 19  04 01 00.997   +27 16 45.08  409630 1.0105   6.8 42?? 109d 173
2020 05 26 20  04 02 12.456   +27 36 26.88  411865 1.0105   7.0 42?? 110d 173
2020 05 26 21  04 03 23.575   +27 55 53.67  414091 1.0105   7.2 41?? 109d 173
2020 05 26 22  04 04 34.361   +28 15 05.72  416309 1.0105   7.4 41?? 110d 173
2020 05 26 23  04 05 44.824   +28 34 03.30  418518 1.0105   7.6 41?? 109d 173
2020 05 27 00  04 06 54.972   +28 52 46.68  420718 1.0105   7.9 40?? 109d 173
2020 05 27 01  04 08 04.812   +29 11 16.11  422910 1.0105   8.1 40?? 109d 173
2020 05 27 02  04 09 14.352   +29 29 31.84  425093 1.0105   8.3 40?? 109d 173
2020 05 27 03  04 10 23.599   +29 47 34.12  427267 1.0105   8.6 39?? 108d 173
2020 05 27 04  04 11 32.561   +30 05 23.19  429433 1.0105   8.8 39?? 108d 173
2020 05 27 05  04 12 41.244   +30 22 59.28  431590 1.0105   9.1 39?? 108d 174
2020 05 27 06  04 13 49.655   +30 40 22.62  433739 1.0104   9.4 38?? 108d 174
2020 05 27 07  04 14 57.801   +30 57 33.42  435878 1.0104   9.6 38?? 108d 174
2020 05 27 08  04 16 05.689   +31 14 31.92  438009 1.0104   9.9 38?? 108d 174
2020 05 27 09  04 17 13.323   +31 31 18.31  440132 1.0104  10.2 37?? 108d 174
2020 05 27 10  04 18 20.710   +31 47 52.81  442245 1.0104  10.4 37?? 108d 174
2020 05 27 11  04 19 27.856   +32 04 15.61  444350 1.0104  10.7 37?? 107d 174
2020 05 27 12  04 20 34.767   +32 20 26.92  446446 1.0104  11.0 37?? 107d 174
2020 05 27 13  04 21 41.448   +32 36 26.92  448533 1.0104  11.3 36?? 107d 174
2020 05 27 14  04 22 47.904   +32 52 15.80  450612 1.0104  11.5 36?? 106d 174
2020 05 27 15  04 23 54.141   +33 07 53.75  452682 1.0104  11.8 36?? 106d 174
2020 05 27 16  04 25 00.163   +33 23 20.94  454743 1.0104  12.1 36?? 106d 174
2020 05 27 17  04 26 05.975   +33 38 37.55  456796 1.0104  12.3 36?? 105d 174
2020 05 27 18  04 27 11.583   +33 53 43.75  458840 1.0104  12.6 35?? 105d 174
2020 05 27 19  04 28 16.990   +34 08 39.71  460875 1.0104  12.9 35?? 105d 174
2020 05 27 20  04 29 22.202   +34 23 25.59  462902 1.0104  13.1 35?? 104d 174
2020 05 27 21  04 30 27.222   +34 38 01.54  464919 1.0104  13.4 35?? 104d 174
2020 05 27 22  04 31 32.055   +34 52 27.73  466929 1.0104  13.7 35?? 104d 174
2020 05 27 23  04 32 36.706   +35 06 44.31  468929 1.0104  13.9 35?? 103d 174
2020 05 28 00  04 33 41.177   +35 20 51.42  470921 1.0104  14.2 34?? 103d 174
2020 05 28 01  04 34 45.473   +35 34 49.21  472905 1.0104  14.5 34?? 103d 174
2020 05 28 02  04 35 49.599   +35 48 37.82  474879 1.0104  14.7 34?? 102d 174
2020 05 28 03  04 36 53.556   +36 02 17.40  476845 1.0104  15.0 34?? 102d 174
2020 05 28 04  04 37 57.350   +36 15 48.07  478803 1.0104  15.2 34?? 102d 174